星链-37616(STARLINK-37616)

导读

STARLINK-37616(NORAD编号69040)是SpaceX星链星座的低轨互联网通信卫星,隶属于SpaceX打造的全球卫星互联网项目。作为星链大规模组网中的一员,该卫星运行于近地轨道,主要为全球尤其是偏远地区提供高速宽带互联网接入服务。星链星座依托低轨布局降低通信延迟,目前已完成数万颗卫星部署计划,STARLINK-37616这类卫星是其实现全球覆盖、支撑天地一体化网络的关键组成单元,推动了全球互联网接入的普惠性发展。

Basic Information
目录编号:
69040
目录名称:
STARLINK-37616
国际标识:
2026-101R
轨道中心:
EARTH
卫星名称:
星链-37616
卫星全名:
星链-37616(STARLINK-37616)
卫星状态:
在轨 (已飞行130 天)
发射日期:
2026-05-06 UTC
国别 :
美国 (US)
星等 :
--
This satellite is enrolled in the Space Conjunction Data Service (SCDS) and the current flight risk assessment level is: No High Risk
Orbit Information
数据来源 国际轨道数据 AOE轨道数据
星历时间 2026-09-13T10:44:40+0800
10小时前
查看轨道信息
2026-09-09T23:00:00+0800
3天前
查看轨道信息
半长轴 6843.686km 6843.726km
偏心率 0.0001848 0.0001997
轨道倾角 97.284° 97.283°
近地点辐角 87.463° 101.057°
升交点赤经 109.653° 106.213°
平近点角 272.682° 89.052°
近地点 464.284km 464.222km
远地点 466.814km 466.956km
周期 93.906分钟 93.907分钟
每日圈数 15.334433 15.334296
Detailed Information
固有亮度:
5
最大亮度:
2.5
卫星平台:
Starlink V1.0
覆盖范围:
全球
运营商:
太空探索技术公司
运营商所在国:
美国
制造商(研发单位):
太空探索技术公司
制造商所在国:
美国
使用方式:
暂无
Satellite Introduction
Starlink 计划是 SpaceX 推出的全球卫星互联网项目,通过发射低轨道卫星,为全球尤其是偏远地区提供高速、低延迟的互联网服务。自 2019 年起,Starlink 已部署数千颗卫星,旨在缩小全球数字鸿沟,推动互联网普及。该项目还为军事、航空等行业提供通信支持,带来广泛经济效益。
2D Orbit Map
3D Orbit Map
Orbit Altitude Analysis Chart
Orbit Inclination Analysis Chart
Orbit Comprehensive Analysis Chart
View Comprehensive Chart
Conjunction Data List
Event ID Objects TCA Miss Dist (km) Collision Risk Probability Collision Risk Index (CRI) Action
CDM_260915-050305-236406-904021
2026-09-15T
05:03:55+0000
2.134 km
极远距离
1.796297E-6 低风险 0.4
CDM_260915-150404-607606-904021
2026-09-15T
15:04:24+0000
2.912 km
极远距离
1.386422E-6 低风险 0.38
CDM_260914-074704-832106-904022
2026-09-14T
07:47:55+0000
2.913 km
极远距离
1.382089E-6 低风险 0.38
CDM_260915-022804-431006-904022
OBJECT A (44310)
2026-09-15T
02:28:23+0000
2.937 km
极远距离
1.354601E-6 低风险 0.38
CDM_260914-075206-295206-904021
2026-09-14T
07:52:02+0000
2.348 km
极远距离
1.278199E-6 低风险 0.37
CDM_260914-031306-533206-904021
2026-09-14T
03:13:24+0000
2.659 km
极远距离
1.180955E-6 低风险 0.36
CDM_260915-072506-532306-904021
2026-09-15T
07:25:18+0000
2.735 km
极远距离
1.169996E-6 低风险 0.36
CDM_260913-125704-786106-904021
2026-09-13T
12:57:08+0000
2.927 km
极远距离
8.137728E-7 极低风险 0.33
Miss Distance Evolution Trend with All Objects
Collision Probability Evolution Trend with All Objects